User: anonymous   Login
Location: Boston
(42.3580°N, 71.0600°W)
Time: 04:36:22
(UTC-05:00)
Language:

LO-87 - Orbit

View from above orbital plane
View from above orbital plane
View from above satellite
View from above satellite

Ground track
Ground track

The orbit data is extracted from the following two-line orbital elements,

1 41557U 16033B   18054.82179596  .00001304  00000-0  50395-4 0  9994
2 41557  97.4427 139.2332 0013581 191.8979 168.1942 15.28015639 96840
Epoch (UTC): 23 February 2018 19:43:23
Eccentricity: 0.0013581
inclination: 97.4427°
perigee height: 472 km
apogee height: 491 km
right ascension of ascending node: 139.2332°
argument of perigee: 191.8979°
revolutions per day: 15.28015639
mean anomaly at epoch: 168.1942°
orbit number at epoch: 9684

The dashed part of the orbit path shows where the satellite is in the earth's shadow,  

DLR